Regional Weather Roundup
Issued by NWS Grand Forks, ND

Home | Current Version | Previous Version | Text Only | Print | Product List | Glossary Off
Versions: 1 2 3 4 5 6 7 8 9 10 11 12 13 14 15 16 17 18 19 20 21 22 23 24 25 26 27 28 29 30 31 32 33 34 35 36 37 38 39 40 41 42 43 44 45 46 47 48 49 50

000
ASUS43 KFGF 200831
RWRFGF
PRAIRIE TO PINES  WEATHER ROUNDUP
NATIONAL WEATHER SERVICE EASTERN NORTH DAKOTA/GRAND FORKS ND
300 AM CDT WED SEP 20 2017

 **SATELLITE DATA USED TO AUGMENT SKY COVER AT AUTOMATED STATIONS**
 *****  WEATHER ACROSS EASTERN NORTH DAKOTA  *****

CITY           SKY/WX    TMP DP  RH WIND       PRES   REMARKS
GRAND FORKS    MOCLDY    61  60  97 W9        29.42F
GRAND FRKS AFB FAIR      59  59  99 W9        29.41F
DEVILS LAKE    CLOUDY    52  50  93 W17       29.51R
FARGO          MOCLDY    61  60  97 SW13      29.48S
WAHPETON ARPT  PTSUNNY   59  57  94 S5        29.50R
$$

 ***** WEATHER ACROSS CENTRAL AND WESTERN NORTH DAKOTA  *****

CITY           SKY/WX    TMP DP  RH WIND       PRES   REMARKS
BISMARCK       FAIR      49  44  83 W13       29.63R
MINOT          CLOUDY    52  47  83 SW10      29.55R
JAMESTOWN      FAIR      54  46  74 NW10      29.55R
MINOT AFB      CLOUDY    49  46  91 W6        29.53R
GARRISON         N/A     46  41  82 W10       29.58R
WILLISTON      FAIR      44  40  85 SW9       29.59S
DICKINSON      FAIR      42  39  89 W13       29.62S
HETTINGER      FAIR      40  37  89 W6        29.69S
$$

 *****  OTHER AIRPORT OBSERVATIONS IN OUR AREA  *****

CITY           SKY/WX    TMP DP  RH WIND       PRES   REMARKS
WALHALLA       FAIR     N/A N/A N/A W10       29.39F
GRAFTON AIRPOR CLOUDY    59  59 100 W15       29.42S
VALLEY CITY AR CLOUDY    54  52  94 W16G26    29.56R
CANDO          CLOUDY    52  52 100 W13G21    29.51R
CAVALIER APRT  PTSUNNY   59  57  94 W10G18    29.39F
GWINNER        MOSUNNY   57  55  94 W13G20    29.59R
ROLLA          CLOUDY    50  50 100 W13G20    29.50R
 ***** THE ABOVE OBSERVATIONS ARE NON NWS ARE NOT QUALITY
       CONTROLLED AND MAY MIS-REPORT RAIN FOR SNOW...
$$

  *****  WEATHER ACROSS NORTHERN MINNESOTA  *****

CITY           SKY/WX    TMP DP  RH WIND       PRES   REMARKS
FLAG ISLAND    LGT RAIN  61  59  94 SE22      29.39F
WARROAD        FAIR      61  57  88 SE7       29.41F
ROSEAU         FAIR      63  57  82 SE7       29.40F
HALLOCK        CLOUDY    63  61  94 S9        29.39F
THF RVR FALLS  CLOUDY    61  60  97 S5        29.45F
BAUDETTE       LGT RAIN  61  60  97 SE15      29.47F
WASKISH        LGT RAIN  61  61 100 E18G26    29.38F
CROOKSTON      CLOUDY    63  63 100 S9        29.45R
STEPHEN NDAWN    N/A    N/A N/A N/A SE5         N/A
GREENBUSH NDAW   N/A     61  61 100 SE3         N/A
$$
  *****  WEATHER ACROSS CENTRAL AND WEST MINNESOTA  *****

CITY           SKY/WX    TMP DP  RH WIND       PRES   REMARKS
FOSSTON        MOCLDY    57  57 100 SE8       29.47R
BEMIDJI        CLOUDY    59  59  99 SE13      29.50R
PARK RAPIDS    LGT RAIN  62  60  93 SE12      29.52F
ELBOW LAKE     FAIR      62  62 100 CALM      29.53F
WADENA         CLOUDY    63  63 100 S12       29.54R
DETROIT LAKES  FOG       63  61  94 SE7       29.52R VSB 3/4
MOORHEAD       MOCLDY    61  57  88 SW7       29.49R
FERGUS FALLS   FAIR      63  63 100 SE7       29.50F
MORRIS MN      FAIR      61  61 100 SE8       29.54S FOG
STAPLES        CLOUDY    61  59  94 S9        29.57S
$$
  *****  WEATHER ELSEWHERE ACROSS MINNESOTA  *****

CITY           SKY/WX    TMP DP  RH WIND       PRES   REMARKS
DULUTH         TSTM      63  61  93 SW26G54   29.72R SQUALL  FOG
INTRNTL FALLS  HVY RAIN  61  60  97 SE8       29.60R FOG
ELY            FAIR      63  55  77 SE20G26   29.62F
CLOQUET        TSTM      63  57  82 SW8G21    29.63R
WHEATON        FAIR      61  57  88 CALM      29.53S
BRAINERD       RAIN      61  60  97 S10       29.59R
HIBBING        TSTM      61  60  97 S8G20     29.66R FOG
ALEXANDRIA     CLOUDY    61  60  97 S9        29.58R
SAINT CLOUD    MOCLDY    63  63 100 SE7       29.57F
MINNEAPOLIS    CLOUDY    73  66  78 S10G23    29.62S THUNDER
$$

  *****  WEATHER ACROSS SOUTH DAKOTA  *****

CITY           SKY/WX    TMP DP  RH WIND       PRES   REMARKS
SIOUX FALLS    MOCLDY    60  60 100 CALM      29.66R
BROOKINGS      CLOUDY    59  56  89 S6        29.62S
WATERTOWN      CLOUDY    57  56  96 SW8       29.59R
HURON          FAIR      56  52  86 W13       29.68R
SISSETON         N/A     59  58  96 SW7       29.53R
ABERDEEN       FAIR      55  51  86 W12       29.64R
MITCHELL       FAIR      60  54  80 W8        29.70R
PIERRE         FAIR      53  45  74 NW12      29.69R
MOBRIDGE       FAIR      50  45  83 NW13      29.65R
RAPID CITY     NOT AVBL
$$

  *****  SOME WEATHER IN NEARBY STATES *****

CITY           SKY/WX    TMP DP  RH WIND       PRES   REMARKS
GLASGOW MT     FAIR      46  37  71 W6        29.57S
GREAT FALLS MT FAIR      44  29  55 SW21      29.61F
CHEYENNE WY    FAIR      44  29  55 W14G22    29.93R
SCOTTSBLUFF NE FAIR      54  32  43 W10       29.87R
OMAHA NE       MOCLDY    77  69  76 S7        29.63R
DES MOINES IA  FAIR      76  67  73 S16       29.68F
DAVENPORT IA   MOCLDY    68  63  84 SE9       29.85S
CHICAGO IL     FAIR      63  61  93 SE5       29.90S
EAU CLAIRE WI  FAIR      66  62  87 SE12      29.73F
LA CROSSE WI   MOCLDY    71  64  78 SE17      29.77F
$$

  *****  SOME NATIONAL WEATHER *****

CITY           SKY/WX    TMP DP  RH WIND       PRES   REMARKS
LA GUARDIA NY  MOCLDY    71  65  81 N12       29.79F
RALEIGH NC     FAIR      64  63  96 CALM      29.96S
ATLANTA GA     FAIR      71  68  90 NW6       30.00F
NEW ORLEANS LA FAIR      78  75  90 CALM      29.96S
OKLAHOMA CITY  FAIR      73  60  63 S10       29.79R
ALBUQUERQUE NM FAIR      69  36  29 SW15      30.02R
SALT LAKE CITY FAIR      51  43  74 SE3       29.94S
LOS ANGELES CA FAIR      66  62  87 CALM      29.88F
BOISE ID       CLOUDY    50  40  68 SE10      29.84F
SEATTLE WA     MOCLDY    52  46  80 E6        29.69F
$$

*** WEATHER ACROSS MANITOBA...SASKATCHEWAN AND ONTARIO ***
                ***ONTARIO***

CITY           SKY/WX    TMP DP  RH WIND       PRES   REMARKS
GERALDTON      CLEAR     48  46  93 E6        29.94F
THUNDER BAY    PTCLDY    57  55  94 E8        29.83F
SIOUX LOOKOUT  CLOUDY    59  54  82 SE8       29.67F
TORONTO        CLEAR     66  63  88 NE3       30.00S
BIG TROUT LK   CLOUDY    52  45  76 E9        29.89F
PICKLE LAKE    NOT AVBL
DRYDEN         TSTM      59  57  94 S9G17     29.64R FOG
KENORA         TSTM      59  59 100 SE21G31   29.44F
$$
                *** MANITOBA***

CITY           SKY/WX    TMP DP  RH WIND       PRES   REMARKS
BRANDON        CLOUDY    52  48  87 W14       29.41F
DAUPHIN        CLOUDY    54  48  82 W14G22    29.35S
ISLAND LAKE    NOT AVBL
PILOT MOUND      N/A     54  50  87 W8          N/A
THE PAS        RAIN      55  54  94 E12G24    29.28F
THOMPSON       CLOUDY    50  39  66 E13G25    29.66F
WINNIPEG       CLOUDY    61  61 100 SE12      29.34F
LYNN LAKE      LGT RAIN  45  43  93 E20G26    29.64F
CHURCHILL      MOCLDY    41  37  87 E12       30.07S
GILLAM         CLOUDY    45  39  81 E8        29.88F
$$
                ***SASKATCHEWAN***

CITY           SKY/WX    TMP DP  RH WIND       PRES   REMARKS
ESTEVAN        PTCLDY    48  43  81 SW9       29.53R
KINDERSLEY     CLEAR     34  32  93 SE8       29.46F
LLOYDMINSTER   CLEAR     32  30  93 W8        29.40F WCI  25
PRINCE ALBERT  CLOUDY    46  43  87 W12       29.35S
REGINA         CLOUDY    43  39  87 W7        29.49S
YORKTON        LGT RAIN  48  45  87 SW9       29.39F
N. BATTLEFORD  CLEAR     32  30  93 SW7       29.44S
LA RONGE       LGT RAIN  48  48 100 NE18G28   29.33F
SASKATOON      MOCLDY    39  36  87 SW8       29.43F
SWIFT CURRENT  CLEAR     34  27  75 S13       29.48F WCI  25
$$
NOTE: THESE ARE AUTOMATED STATIONS WITH LIMITED QUALITY CONTROL
      "FAIR" INDICATES FEW OR NO CLOUDS BELOW 12,000 FEET WITH NO
      SIGNIFICANT WEATHER AND/OR OBSTRUCTIONS TO VISIBILITY.
      SKY/WX - SKY CONDITION AND SIGNIFICANT WEATHER.
      TMP - AIR TEMPERATURE.    DP   - DEWPOINT TEMPERATURE.
      RH  - RELATIVE HUMIDITY.  PRES - PRESSURE.
      HX  - HEAT INDEX.         WCI  - WIND CHILL INDEX.
$



USA.gov is the U.S. government's official web portal to all federal, state and local government web resources and services.